Tracking 29892 objects as of 21-Nov-2024
HD Live streaming from Space Station
objects crossing your sky now

STARLINK-2521

Track STARLINK-2521 now!
10-day predictions
STARLINK-2521 is classified as:


NORAD ID: 48648
Int'l Code: 2021-044L
Perigee: 553.5 km
Apogee: 555.2 km
Inclination: 53.1 °
Period: 95.6 minutes
Semi major axis: 6925 km
RCS: Unknown
Launch date: May 26, 2021
Source: United States (US)
Launch site: AIR FORCE EASTERN TEST RANGE (AFETR)
Your satellite tracking list
Your tracking list is empty




NASA's NSSDC Master Catalog

Two Line Element Set (TLE):
1 48648U 21044L   24324.60260992  .00000814  00000-0  73559-4 0  9996
2 48648  53.0537  94.5314 0001200  85.5941 274.5185 15.06396760192104
Source of the keplerian elements: AFSPC